View from above orbital plane
|
View from above satellite
|
Ground track
|
The orbit data is extracted from the following two-line orbital elements,
1 3047U 67116A 21023.07443853 .00000032 00000-0 14041-4 0 9996
2 3047 74.0121 160.6455 0007107 91.2654 268.9323 14.55663315812126
Epoch (UTC): | 23 January 2021 01:47:11 |
Eccentricity: | 0.0007107 |
inclination: | 74.0121° |
perigee height: | 702 km |
apogee height: | 712 km |
right ascension of ascending node: | 160.6455° |
argument of perigee: | 91.2654° |
revolutions per day: | 14.55663315 |
mean anomaly at epoch: | 268.9323° |
orbit number at epoch: | 81212 |
The dashed part of the orbit path shows where the satellite is in the earth's shadow,
|
|